[[{"header":{"parameterUnit":"m.s-1","parameterCategory":1,"la1":30.2991,"la2":30.254,"lo1":-89.0895,"lo2":-89.0444,"dy":0.0017,"dx":0.0017,"nx":28,"ny":28,"refTime":"2024-04-18T21:00:00:Z","depth":0,"parameterNumber":2,"parameterNumberName":"U-component_of_WINDS"},"data":[0,0,0,0,0,0,0,0,0,0,0,0,0,0,0,0,0,0,0,0,0,0,0,0,0,0,0,0,0,0,0,0,0,0,0,0,0,0,0,0,0,0,0,0,0,0,0,0,0,0,0,0,0,0,0,0,0,0,-1.8373,-1.8374,0,-1.8486,-1.8488,-1.8489,-1.8525,-1.8525,-1.8524,-1.8524,-1.8642,-1.8646,-1.8649,0,0,0,0,0,0,0,0,0,0,0,0,0,-1.8192,-1.8195,-1.8373,-1.8375,-1.8376,-1.8486,-1.8488,-1.8489,-1.8525,-1.8525,-1.8524,-1.8524,-1.8641,-1.8645,-1.865,0,0,0,0,0,0,0,0,0,0,0,0,0,-1.8284,-1.8196,-1.8373,-1.8407,-1.8411,-1.8486,-1.8488,-1.849,-1.8526,-1.8525,-1.8524,-1.8523,-1.864,-1.8645,-1.865,-1.8699,0,0,-1.8667,-1.8669,0,0,0,0,0,0,0,0,-1.8279,-1.8291,-1.8401,-1.8405,-1.841,-1.8491,-1.8467,-1.856,-1.8526,-1.8482,-1.8524,-1.8523,-1.8593,-1.8602,-1.8625,-1.8705,-1.871,-1.8667,-1.8671,-1.8673,-1.8675,0,0,0,0,0,0,0,-1.8273,-1.8286,-1.8418,-1.8402,-1.8408,-1.8418,-1.843,-1.8485,-1.8541,-1.8486,-1.8489,-1.8502,-1.8595,-1.862,-1.8628,-1.8712,-1.8667,-1.8672,-1.8675,-1.8678,-1.884,-1.8841,0,0,0,0,0,0,-1.826,-1.8281,-1.8414,-1.8421,-1.8341,-1.8422,-1.8436,-1.8466,-1.854,-1.8551,-1.8502,-1.8503,-1.8611,-1.8622,-1.8632,-1.8695,-1.8673,-1.8678,-1.8681,-1.8839,-1.884,-1.8842,0,0,0,0,0,0,-1.8256,-1.8272,-1.841,-1.8352,-1.837,-1.8426,-1.8459,-1.8468,-1.8493,-1.8552,-1.8563,-1.8517,-1.861,-1.8625,-1.8683,-1.87,-1.8681,-1.8685,-1.8838,-1.8839,-1.8841,-1.8821,0,0,0,0,0,0,-1.8251,-1.827,-1.8288,-1.8352,-1.8373,-1.8457,-1.846,-1.8471,-1.8502,-1.8504,-1.8569,-1.8579,-1.8611,-1.8674,-1.8688,-1.8707,-1.869,-1.8837,-1.8839,-1.884,-1.8821,-1.8822,-1.8823,0,0,0,0,0,-1.8244,-1.8278,-1.8289,-1.8305,-1.8397,-1.8458,-1.847,-1.8506,-1.8503,-1.8523,-1.8561,-1.8577,-1.8696,-1.868,-1.8696,-1.8717,-1.8836,-1.8838,-1.884,-1.882,-1.8822,-1.8823,0,0,0,0,0,0,-1.8215,-1.8287,-1.83,-1.8355,-1.84,-1.8464,-1.8489,-1.8506,-1.8553,-1.8553,-1.8597,-1.8611,-1.8666,-1.8698,-1.8678,-1.8769,-1.8767,-1.8772,-1.8746,-1.8748,-1.875,-1.874,-1.8694,0,0,0,0,0,-1.8215,-1.8257,-1.8319,-1.8362,-1.8384,-1.8433,-1.8461,-1.8484,-1.8533,-1.8552,-1.8595,-1.8642,-1.8691,-1.8722,-1.8769,-1.8826,-1.8842,-1.8849,-1.885,-1.8851,-1.8855,-1.8889,-1.8893,-1.8849,-1.8849,-1.8849,0,0,-1.8216,-1.826,-1.8284,-1.8358,-1.8395,-1.8439,-1.8448,-1.8494,-1.8528,-1.856,-1.8617,-1.865,-1.8706,-1.8764,-1.8792,-1.8792,-1.8871,-1.8854,-1.8854,-1.8858,-1.8891,-1.8895,-1.8899,-1.8851,-1.8851,-1.885,0,0,-1.8239,-1.8277,-1.8317,-1.8355,-1.8412,-1.8444,-1.8454,-1.8516,-1.8539,-1.8597,-1.8622,-1.8664,-1.8746,-1.8785,-1.8816,-1.8857,-1.8873,-1.8871,-1.8877,-1.891,-1.8913,-1.8916,-1.8931,-1.8936,-1.8875,-1.8875,-1.8875,0,-1.8232,-1.8298,-1.8336,-1.8381,-1.8413,-1.8444,-1.8486,-1.8522,-1.8591,-1.8613,-1.8613,-1.8718,-1.8757,-1.8825,-1.8835,-1.8859,-1.8873,-1.8863,-1.891,-1.8913,-1.8917,-1.8931,-1.8937,-1.8875,-1.8875,-1.8875,-1.8875,0,-1.8288,-1.8334,-1.836,-1.8426,-1.8462,-1.8505,-1.8551,-1.8582,-1.8604,-1.8637,-1.8697,-1.8746,-1.8805,-1.8823,-1.8845,-1.8895,-1.8893,-1.8901,-1.8899,-1.892,-1.8934,-1.894,-1.8874,-1.8874,-1.8874,-1.8874,0,0,-1.8294,-1.8382,-1.8391,-1.8422,-1.8488,-1.8524,-1.8571,-1.8627,-1.8654,-1.8702,-1.8742,-1.8812,-1.882,-1.8854,-1.8881,-1.891,-1.894,-1.8914,-1.8916,-1.8917,-1.8999,-1.8992,-1.8998,-1.8952,-1.8953,-1.8954,-1.8994,0,-1.8325,-1.8407,-1.8443,-1.8509,-1.8552,-1.8584,-1.8624,-1.867,-1.8703,-1.8746,-1.8783,-1.8832,-1.8838,-1.8859,-1.8889,-1.8929,-1.8957,-1.8927,-1.899,-1.8992,-1.8973,-1.9005,-1.8998,-1.9033,-1.9,-1.9001,-1.9002,0,-1.8372,-1.842,-1.8489,-1.8551,-1.8571,-1.8606,-1.8662,-1.8703,-1.8756,-1.8779,-1.8818,-1.8844,-1.8895,-1.8891,-1.8963,-1.8942,-1.8971,-1.8995,-1.8997,-1.9003,-1.8997,-1.9012,-1.9046,-1.905,-1.9011,-1.901,-1.901,0,-1.8369,-1.8451,-1.8503,-1.8529,-1.8603,-1.8627,-1.8659,-1.8712,-1.8744,-1.8794,-1.8816,-1.8871,-1.8902,-1.8945,-1.8986,-1.8979,-1.9054,-1.9053,-1.9074,-1.9073,-1.9087,-1.9085,-1.9125,-1.9107,-1.9107,-1.9107,-1.9107,0,-1.8399,-1.8441,-1.8503,-1.8535,-1.8583,-1.8626,-1.8673,-1.8708,-1.8755,-1.8795,-1.8827,-1.8865,-1.8917,-1.8962,-1.8994,-1.9049,-1.9063,-1.9083,-1.9091,-1.9079,-1.9077,-1.9097,-1.9096,-1.9108,-1.9108,-1.9108,-1.9107,0,-1.8403,-1.8446,-1.8506,-1.8571,-1.8589,-1.8621,-1.8678,-1.8712,-1.8747,-1.8798,-1.8813,-1.8869,-1.8923,-1.8969,-1.9041,-1.9063,-1.912,-1.913,-1.9101,-1.9105,-1.9124,-1.9121,-1.9177,-1.9187,-1.9163,-1.9163,-1.9163,0,-1.8419,-1.8452,-1.8521,-1.855,-1.8581,-1.8628,-1.8662,-1.8706,-1.874,-1.8804,-1.883,-1.8887,-1.8935,-1.9021,-1.9069,-1.9125,-1.9136,-1.9152,-1.9144,-1.9132,-1.9136,-1.9133,-1.9137,-1.9152,-1.9152,-1.9152,-1.9152,0,-1.8443,-1.8463,-1.8509,-1.8564,-1.8603,-1.8648,-1.8694,-1.8717,-1.877,-1.8807,-1.8863,-1.89,-1.8974,-1.903,-1.9092,-1.9127,-1.9149,-1.9154,-1.9162,-1.915,-1.9132,-1.9142,-1.9102,-1.9152,-1.9152,-1.9152,-1.9152,-1.9152,-1.8453,-1.8484,-1.8537,-1.8589,-1.8628,-1.8671,-1.8706,-1.8746,-1.8793,-1.8856,-1.888,-1.8937,-1.8993,-1.9077,-1.9112,-1.9159,-1.9162,-1.9173,-1.9176,-1.9178,-1.9176,-1.9126,-1.9171,-1.9171,-1.9171,-1.9171,-1.9171,0,-1.8478,-1.8515,-1.8561,-1.8625,-1.8666,-1.8683,-1.8735,-1.8769,-1.8818,-1.8868,-1.8914,-1.8979,-1.9035,-1.9088,-1.9146,-1.9174,-1.9186,-1.9188,-1.9186,-1.9194,-1.917,-1.9157,-1.9177,-1.9177,-1.9177,-1.9177,-1.9177,-1.9177,-1.8496,-1.8549,-1.8576,-1.865,-1.8687,-1.8742,-1.8771,-1.8811,-1.8851,-1.8922,-1.8968,-1.9002,-1.9053,-1.9116,-1.9169,-1.9183,-1.9203,-1.9202,-1.9219,-1.9196,-1.9195,-1.9194,-1.9182,-1.9206,-1.9207,-1.9239,-1.9239,-1.9239]},{"header":{"parameterUnit":"m.s-1","parameterCategory":1,"la1":30.2991,"la2":30.254,"lo1":-89.0895,"lo2":-89.0444,"dy":0.0017,"dx":0.0017,"nx":28,"ny":28,"refTime":"2024-04-18T21:00:00:Z","depth":0,"parameterNumber":3,"parameterNumberName":"V-component_of_WINDS"},"data":[0,0,0,0,0,0,0,0,0,0,0,0,0,0,0,0,0,0,0,0,0,0,0,0,0,0,0,0,0,0,0,0,0,0,0,0,0,0,0,0,0,0,0,0,0,0,0,0,0,0,0,0,0,0,0,0,0,0,4.0518,4.0519,0,4.0555,4.0555,4.0556,4.0549,4.0548,4.0548,4.0547,4.0581,4.0583,4.0584,0,0,0,0,0,0,0,0,0,0,0,0,0,4.0441,4.0443,4.0518,4.0519,4.0519,4.0555,4.0555,4.0556,4.0549,4.0548,4.0547,4.0547,4.0581,4.0583,4.0585,0,0,0,0,0,0,0,0,0,0,0,0,0,4.0476,4.0443,4.0518,4.052,4.0521,4.0555,4.0555,4.0556,4.0549,4.0548,4.0547,4.0546,4.058,4.0583,4.0585,4.0618,0,0,4.0592,4.0593,0,0,0,0,0,0,0,0,4.0474,4.0479,4.0519,4.052,4.0521,4.0546,4.0541,4.0577,4.0549,4.0538,4.0547,4.0546,4.057,4.0573,4.0582,4.062,4.0621,4.0592,4.0593,4.0594,4.0595,0,0,0,0,0,0,0,4.0472,4.0477,4.0532,4.052,4.0521,4.0519,4.0523,4.0547,4.0559,4.0539,4.0539,4.0543,4.0571,4.058,4.0583,4.0622,4.0592,4.0594,4.0595,4.0596,4.069,4.0691,0,0,0,0,0,0,4.0469,4.0475,4.0531,4.0534,4.0495,4.0521,4.0525,4.0539,4.0559,4.0561,4.0544,4.0543,4.0577,4.058,4.0584,4.0626,4.0594,4.0596,4.0598,4.0689,4.0691,4.0692,0,0,0,0,0,0,4.0467,4.0474,4.053,4.0504,4.0511,4.0523,4.0539,4.054,4.055,4.0563,4.0564,4.0552,4.0576,4.0581,4.061,4.0627,4.0597,4.06,4.0688,4.069,4.0691,4.0709,0,0,0,0,0,0,4.0465,4.0473,4.0486,4.0505,4.0513,4.0556,4.054,4.0542,4.0554,4.0553,4.057,4.0572,4.0576,4.0607,4.0613,4.063,4.0601,4.0686,4.0689,4.0691,4.0707,4.0711,4.0714,0,0,0,0,0,4.0462,4.0489,4.0487,4.0494,4.0529,4.0557,4.0561,4.0565,4.0555,4.0569,4.0577,4.0572,4.0624,4.061,4.0616,4.0634,4.0685,4.0688,4.0691,4.0705,4.071,4.0714,0,0,0,0,0,0,4.047,4.0491,4.0489,4.0523,4.0538,4.0556,4.0572,4.057,4.0588,4.0586,4.059,4.0594,4.0624,4.0632,4.0616,4.0669,4.0653,4.0657,4.0662,4.0667,4.0671,4.0669,4.0603,0,0,0,0,0,4.0476,4.0497,4.0514,4.0542,4.055,4.056,4.0572,4.0574,4.059,4.0596,4.0607,4.0622,4.0642,4.0655,4.0674,4.0708,4.0712,4.0723,4.0727,4.073,4.0734,4.0754,4.076,4.07,4.07,4.07,0,0,4.0488,4.0502,4.0515,4.0544,4.0556,4.0578,4.0565,4.0588,4.0605,4.0599,4.0629,4.0637,4.0654,4.0687,4.0701,4.0694,4.0751,4.0734,4.0736,4.0738,4.0757,4.0763,4.0768,4.0702,4.0702,4.0701,0,0,4.0521,4.0533,4.0559,4.0572,4.0592,4.0599,4.0605,4.0623,4.0629,4.0659,4.0656,4.0675,4.0709,4.0722,4.0733,4.0773,4.0769,4.0779,4.0799,4.0819,4.0824,4.0828,4.0843,4.0849,4.0782,4.0782,4.0782,0,4.0533,4.0567,4.0572,4.0596,4.061,4.0607,4.0634,4.0646,4.067,4.0679,4.0671,4.0715,4.0726,4.0763,4.0773,4.0781,4.0789,4.0777,4.0823,4.0827,4.0831,4.0846,4.0852,4.0784,4.0783,4.0783,4.0783,0,4.0581,4.0605,4.0623,4.0649,4.0664,4.0689,4.0698,4.0712,4.0714,4.0721,4.0752,4.0766,4.0789,4.0797,4.0798,4.0834,4.0829,4.0822,4.0807,4.0838,4.0852,4.0857,4.0785,4.0785,4.0784,4.0784,0,0,4.0619,4.0649,4.0656,4.0669,4.0691,4.0709,4.0734,4.0758,4.0771,4.0788,4.081,4.084,4.0834,4.0846,4.0848,4.0866,4.0899,4.0856,4.0857,4.0865,4.0941,4.0948,4.0954,4.0896,4.0897,4.0898,4.094,0,4.0656,4.0702,4.0708,4.0749,4.0771,4.077,4.0792,4.0808,4.0817,4.0837,4.0845,4.0867,4.0857,4.0865,4.0882,4.0891,4.0914,4.0888,4.0917,4.0918,4.0914,4.0961,4.0968,4.1007,4.0946,4.0947,4.0947,0,4.0704,4.0725,4.0768,4.0789,4.0799,4.0819,4.0842,4.0861,4.088,4.0885,4.09,4.09,4.0927,4.0911,4.0947,4.0929,4.0942,4.0948,4.095,4.0953,4.0935,4.0967,4.1019,4.1025,4.0956,4.0955,4.0955,0,4.0729,4.0768,4.0799,4.081,4.0835,4.0849,4.086,4.0878,4.0893,4.0912,4.0922,4.0944,4.0956,4.0973,4.098,4.0967,4.1017,4.1001,4.1022,4.1022,4.1033,4.1032,4.1089,4.1039,4.1039,4.1039,4.1039,0,4.077,4.0796,4.0811,4.0831,4.0861,4.0868,4.0898,4.0908,4.0925,4.0946,4.0946,4.0965,4.0973,4.0994,4.0999,4.1029,4.1034,4.1039,4.104,4.104,4.1039,4.1048,4.1046,4.1041,4.104,4.104,4.104,0,4.0803,4.0814,4.0849,4.0871,4.0877,4.0898,4.0917,4.0936,4.0944,4.0972,4.0978,4.0991,4.1017,4.1025,4.1054,4.1058,4.1094,4.1092,4.1088,4.1089,4.111,4.1108,4.1174,4.1184,4.1128,4.1128,4.1128,0,4.0829,4.085,4.0875,4.089,4.0902,4.0926,4.0941,4.0949,4.0965,4.0989,4.1005,4.103,4.1051,4.1091,4.1103,4.1126,4.1126,4.1147,4.1129,4.1128,4.1127,4.1126,4.1129,4.1151,4.1151,4.1152,4.1152,0,4.0873,4.0878,4.0901,4.0927,4.0945,4.0965,4.0984,4.0997,4.1007,4.1025,4.1052,4.1068,4.11,4.1125,4.1149,4.116,4.1158,4.1158,4.1164,4.1164,4.1162,4.1165,4.1099,4.1156,4.1156,4.1156,4.1156,4.1155,4.0904,4.0924,4.0945,4.0971,4.0987,4.1005,4.1025,4.1037,4.106,4.1087,4.109,4.1119,4.1138,4.117,4.1183,4.1205,4.1199,4.1208,4.121,4.1212,4.1215,4.1158,4.1209,4.1209,4.1209,4.1209,4.1209,0,4.095,4.0964,4.0988,4.1016,4.1037,4.1035,4.1057,4.1074,4.11,4.1118,4.1139,4.1171,4.1196,4.121,4.1235,4.1251,4.1251,4.1257,4.1256,4.1259,4.1218,4.1211,4.1257,4.1257,4.1257,4.1257,4.1257,4.1257,4.0977,4.101,4.1018,4.106,4.1073,4.1103,4.1116,4.1133,4.1148,4.1183,4.1205,4.1215,4.1232,4.1258,4.1281,4.1285,4.1295,4.1302,4.1305,4.1267,4.1262,4.1257,4.125,4.1304,4.1304,4.1344,4.1345,4.1345]}]]